OH6NMY Weather Reports


time (UTC)temp
F
wind
direction
speed
knots
gust
knots
rain 1hr
in
rain 24hr
in
rain mn
in
humidity
%
barometer
mb
20260506115024 46 272 10.4 13.9 0.00 0.00 0.00 46 1011.7
20260506114334 46 277 10.4 13.9 0.00 0.00 0.00 46 1011.8
20260506113224 47 292 13.0 18.2 0.00 0.00 0.00 42 1011.5
20260506112534 47 300 13.9 18.2 0.00 0.00 0.00 39 1011.4
20260506111424 47 297 10.4 18.2 0.00 0.00 0.00 41 1011.3
20260506110524 46 276 11.3 17.4 0.00 0.00 0.00 40 1011.4
20260506105836 47 296 11.3 17.4 0.00 0.00 0.00 40 1011.3
20260506104933 47 291 11.3 14.8 0.00 0.00 0.00 41 1011.2
20260506103824 47 269 8.7 13.0 0.00 0.00 0.00 42 1011.0
20260506102924 46 274 10.4 19.1 0.00 0.00 0.00 44 1010.9
20260506102024 46 280 10.4 19.1 0.00 0.00 0.00 44 1010.9
20260506101124 46 259 8.7 13.9 0.00 0.00 0.00 43 1011.1
20260506100223 46 282 7.8 12.2 0.00 0.00 0.00 42 1010.9
20260506095323 48 270 8.7 11.3 0.00 0.00 0.00 43 1010.6
20260506094424 46 281 8.7 11.3 0.00 0.00 0.00 45 1010.8
20260506093524 45 266 10.4 19.1 0.00 0.00 0.00 42 1010.4
20260506092624 46 293 13.0 19.1 0.00 0.00 0.00 45 1010.3
20260506091723 46 276 10.4 13.0 0.00 0.00 0.00 44 1010.3
20260506090824 46 277 10.4 13.0 0.00 0.00 0.00 46 1010.4
20260506090136 46 278 10.4 13.0 0.00 0.00 0.00 46 1010.1
20260506085024 44 267 10.4 13.9 0.00 0.00 0.00 47 1010.2
20260506084124 45 270 13.0 17.4 0.00 0.00 0.00 49 1010.3
20260506083223 43 274 8.7 12.2 0.00 0.00 0.00 51 1010.4
20260506082324 44 283 8.7 14.8 0.00 0.00 0.00 50 1010.1
20260506081423 44 284 8.7 11.3 0.00 0.00 0.00 50 1009.9
20260506080524 43 294 9.6 14.8 0.00 0.00 0.00 52 1010.0
20260506072923 42 278 9.6 14.8 0.00 0.00 0.00 55 1009.7
20260506072024 43 284 10.4 13.0 0.00 0.00 0.00 55 1009.3
20260506071124 42 266 10.4 14.8 0.00 0.00 0.00 57 1009.3
20260506070223 43 281 8.7 13.9 0.00 0.00 0.00 58 1009.4
20260506061723 41 271 9.6 12.2 0.00 0.00 0.00 62 1009.1
20260506061035 41 256 8.7 12.2 0.00 0.00 0.00 63 1008.9
20260506050524 39 292 7.0 9.6 0.00 0.00 0.00 69 1008.5
20260506044724 38 251 7.0 9.6 0.00 0.00 0.00 72 1008.5
20260506043824 38 273 6.1 7.8 0.00 0.00 0.00 72 1008.3
20260506042923 37 265 6.1 9.6 0.00 0.00 0.00 73 1008.2
20260506042024 37 261 5.2 9.6 0.00 0.00 0.00 73 1008.1
20260506041336 37 264 6.1 7.8 0.00 0.00 0.00 74 1008.2
20260506040224 36 267 6.1 9.6 0.00 0.00 0.00 75 1007.9
20260506035324 36 283 5.2 7.0 0.00 0.00 0.00 75 1007.9
20260506034424 36 265 3.5 5.2 0.00 0.00 0.00 75 1007.8
20260506033524 36 261 4.3 7.8 0.00 0.00 0.00 76 1007.7
20260506032624 35 260 5.2 7.0 0.00 0.00 0.00 77 1007.6
20260506031723 35 258 3.5 6.1 0.00 0.00 0.00 78 1007.6
20260506030824 34 265 4.3 6.1 0.00 0.00 0.00 79 1007.5
20260506025924 34 260 3.5 6.1 0.00 0.00 0.00 79 1007.2
20260506025024 34 262 3.5 6.1 0.00 0.00 0.00 79 1007.5
20260506024124 34 266 3.5 6.1 0.00 0.00 0.00 80 1007.3
20260506023224 34 259 3.5 5.2 0.00 0.00 0.00 81 1007.4
20260506022534 34 252 2.6 5.2 0.00 0.00 0.00 81 1007.4
20260506021424 34 255 3.5 7.0 0.00 0.00 0.00 81 1007.1
20260506020524 33 259 2.6 6.1 0.00 0.00 0.00 81 1007.0
20260506015624 34 260 3.5 3.5 0.00 0.00 0.00 81 1007.1
20260506014724 34 258 3.5 5.2 0.00 0.00 0.00 81 1006.8
20260506013824 34 257 3.5 5.2 0.00 0.00 0.00 81 1007.0
20260506012924 34 258 3.5 5.2 0.00 0.00 0.00 81 1006.8
20260506012236 34 257 3.5 5.2 0.00 0.00 0.00 81 1006.8
20260506011124 34 263 3.5 5.2 0.00 0.00 0.00 79 1006.6
20260506010224 34 257 3.5 7.0 0.00 0.00 0.00 79 1006.4
20260506005324 34 260 2.6 7.0 0.00 0.00 0.00 79 1006.5
20260506004424 34 265 2.6 3.5 0.00 0.00 0.00 78 1006.4
20260506003523 34 254 1.7 3.5 0.00 0.00 0.00 78 1006.3
20260506002624 34 243 0.9 3.5 0.00 0.00 0.00 77 1006.3
20260506001724 35 244 0.9 3.5 0.00 0.00 0.00 76 1006.3
20260506000824 35 230 1.7 1.7 0.00 0.00 0.00 73 1006.0
20260505235924 36 240 0.9 3.5 0.00 0.00 0.00 71 1006.1
20260505235023 37 256 2.6 5.2 0.00 0.00 0.00 68 1005.8
20260505234123 37 258 3.5 5.2 0.00 0.00 0.00 67 1005.8
20260505233224 38 286 4.3 7.0 0.00 0.00 0.00 67 1005.9
20260505232324 38 272 4.3 7.0 0.00 0.00 0.00 67 1005.7
20260505231424 37 257 2.6 5.2 0.00 0.00 0.00 69 1005.6
20260505230736 37 265 3.5 5.2 0.00 0.00 0.00 71 1005.6
20260505225623 36 259 5.2 7.8 0.00 0.00 0.00 74 1005.8
20260505224723 36 263 4.3 6.1 0.00 0.00 0.00 74 1005.7
20260505223824 36 259 3.5 5.2 0.00 0.00 0.00 76 1005.8
20260505222924 36 256 4.3 6.1 0.00 0.00 0.00 76 1005.6
20260505222024 36 241 1.7 3.5 0.00 0.00 0.00 77 1005.8
20260505221124 36 239 1.7 3.5 0.00 0.00 0.00 76 1005.6
20260505220437 36 226 1.7 3.5 0.00 0.00 0.00 75 1005.5
20260505215323 36 219 1.7 3.5 0.00 0.00 0.00 74 1005.6
20260505214423 37 224 1.7 3.5 0.00 0.00 0.00 73 1005.6
20260505213524 37 221 1.7 3.5 0.00 0.00 0.00 73 1005.1
20260505212836 37 227 1.7 3.5 0.00 0.00 0.00 72 1005.2
20260505211934 37 245 2.6 3.5 0.00 0.00 0.00 71 1005.2
20260505210824 38 220 2.6 3.5 0.00 0.00 0.00 71 1005.3
20260505205924 38 236 2.6 3.5 0.00 0.00 0.00 70 1005.3
20260505205024 38 238 2.6 3.5 0.00 0.00 0.00 69 1005.2
20260505204123 38 247 2.6 5.2 0.00 0.00 0.00 69 1005.2
20260505203224 38 232 3.5 6.1 0.00 0.00 0.00 67 1005.2
20260505202323 38 217 2.6 3.5 0.00 0.00 0.00 67 1005.1
20260505201424 39 239 2.6 3.5 0.00 0.00 0.00 65 1004.9
20260505200524 39 226 0.9 1.7 0.00 0.00 0.00 63 1005.1
20260505195624 39 226 0.9 3.5 0.00 0.00 0.00 61 1004.8
20260505194723 40 225 0.9 3.5 0.00 0.00 0.00 60 1004.8
20260505193823 40 242 1.7 3.5 0.00 0.00 0.00 59 1005.1
20260505192924 41 255 2.6 5.2 0.00 0.00 0.00 57 1005.0
20260505192024 41 254 4.3 9.6 0.00 0.00 0.00 55 1004.9
20260505191124 42 265 6.1 9.6 0.00 0.00 0.00 54 1004.8
20260505190224 42 242 3.5 6.1 0.00 0.00 0.00 54 1004.8
20260505185324 43 260 4.3 6.1 0.00 0.00 0.00 52 1004.7
20260505184424 43 258 4.3 6.1 0.00 0.01 0.00 51 1004.6
20260505183523 44 247 4.3 7.0 0.00 0.02 0.00 50 1004.7
20260505182624 44 255 5.2 7.0 0.00 0.02 0.00 49 1004.7
20260505181724 45 275 5.2 7.0 0.00 0.02 0.00 47 1004.6
20260505180824 45 276 4.3 7.0 0.00 0.02 0.00 47 1004.7
20260505175923 46 275 5.2 7.0 0.00 0.02 0.00 46 1004.6
20260505175238 46 272 8.7 12.2 0.00 0.02 0.00 45 1004.4
20260505174124 46 274 6.1 11.3 0.00 0.02 0.00 45 1004.2
20260505173224 46 282 9.6 13.0 0.00 0.02 0.00 44 1004.2
20260505172323 47 288 9.6 13.0 0.00 0.02 0.00 43 1004.0
20260505171424 47 273 7.0 11.3 0.00 0.02 0.00 42 1004.2
20260505170524 48 289 7.8 11.3 0.00 0.02 0.00 40 1004.0
20260505165624 48 257 7.8 11.3 0.00 0.02 0.00 40 1004.0
20260505164934 48 277 8.7 11.3 0.00 0.02 0.00 41 1003.9
20260505163823 48 273 9.6 18.2 0.00 0.02 0.00 39 1003.9
20260505162923 49 283 7.8 11.3 0.00 0.02 0.00 39 1003.9
20260505162236 48 282 8.7 12.2 0.00 0.02 0.00 40 1003.9
20260505161123 48 277 9.6 13.9 0.00 0.02 0.00 38 1003.9
20260505160223 49 290 11.3 19.1 0.00 0.02 0.00 37 1003.7
20260505152624 48 292 11.3 13.9 0.00 0.02 0.00 36 1003.4
20260505151724 49 291 11.3 13.9 0.00 0.02 0.00 35 1003.7
20260505150824 49 294 10.4 13.9 0.00 0.02 0.00 35 1003.6
20260505140524 49 307 11.3 13.9 0.00 0.02 0.00 37 1002.8
20260505130223 48 311 11.3 15.6 0.00 0.02 0.00 40 1002.6
20260505124424 49 293 11.3 14.8 0.00 0.02 0.00 40 1002.5
20260505123524 47 299 12.2 15.6 0.00 0.02 0.00 40 1002.6
20260505122623 48 290 9.6 12.2 0.00 0.02 0.00 41 1002.3
20260505121724 47 303 10.4 12.2 0.00 0.02 0.00 41 1002.4
20260505120823 47 329 11.3 18.2 0.00 0.02 0.00 41 1002.3
20260505115924 48 292 11.3 14.8 0.00 0.02 0.00 40 1002.1